International Skating Union - Official Site

ISU World Cup Harbin
November 11-13, 2016

Draw | Lap Times | Index | World Cup

Referee: Trevis  BOYD  (CAN)
Starter: Chen  SONG  (CHN)
StartTime: EndTime: Air Temp: Ice Temp: Humidity:
14:15 14:52 13.0℃ -6.4℃ 45.0%
Result 3000m Ladies Division B
Rankings as of Nov 13 2016 1:28PM
Rank: No.: Name: Nation: Time: Behind: Points:
1 236 Claudia  Pechstein GER GER 4:10.99200m - 20.81 - (20.8)
600m - 52.90 - (32.0)
1000m - 1:25.90 - (33.0)
1400m - 1:58.91 - (33.0)
1800m - 2:32.03 - (33.1)
2200m - 3:05.09 - (33.0)
2600m - 3:38.37 - (33.2)
3000m - 4:10.99 - (32.6)
32
2 239 Francesca  Lollobrigida ITA ITA 4:11.74200m - 20.68 - (20.6)
600m - 52.28 - (31.6)
1000m - 1:24.64 - (32.3)
1400m - 1:57.22 - (32.5)
1800m - 2:30.44 - (33.2)
2200m - 3:03.89 - (33.4)
2600m - 3:37.84 - (33.9)
3000m - 4:11.74 - (33.8)
0.75 27
3 252 Bo-Reum  Kim KOR KOR 4:12.21200m - 20.87 - (20.8)
600m - 53.25 - (32.3)
1000m - 1:26.07 - (32.8)
1400m - 1:59.13 - (33.0)
1800m - 2:32.44 - (33.3)
2200m - 3:05.66 - (33.2)
2600m - 3:39.08 - (33.4)
3000m - 4:12.21 - (33.1)
1.22 23
4 204 Marina  Zuyeva BLR BLR 4:12.61200m - 20.28 - (20.2)
600m - 52.10 - (31.8)
1000m - 1:24.17 - (32.0)
1400m - 1:56.73 - (32.5)
1800m - 2:29.50 - (32.7)
2200m - 3:03.28 - (33.7)
2600m - 3:37.35 - (34.0)
3000m - 4:12.61 - (35.2)
1.62 19
5 292 Mia  Manganello USA USA 4:12.78200m - 20.82 - (20.8)
600m - 52.77 - (31.9)
1000m - 1:25.15 - (32.3)
1400m - 1:57.45 - (32.2)
1800m - 2:30.60 - (33.1)
2200m - 3:03.80 - (33.2)
2600m - 3:37.61 - (33.8)
3000m - 4:12.78 - (35.1)
1.79 15
6 245 Ayano  Sato JPN JPN 4:15.90200m - 20.25 - (20.2)
600m - 52.30 - (32.0)
1000m - 1:24.93 - (32.6)
1400m - 1:58.04 - (33.1)
1800m - 2:32.38 - (34.3)
2200m - 3:06.91 - (34.5)
2600m - 3:41.84 - (34.9)
3000m - 4:15.90 - (34.0)
4.91 11
7 202 Jelena  Peeters BEL BEL 4:16.22200m - 20.64 - (20.6)
600m - 52.73 - (32.0)
1000m - 1:25.36 - (32.6)
1400m - 1:58.58 - (33.2)
1800m - 2:32.11 - (33.5)
2200m - 3:06.20 - (34.0)
2600m - 3:40.86 - (34.6)
3000m - 4:16.22 - (35.3)
5.23 9
8 246 Maki  Tabata JPN JPN 4:17.59200m - 20.37 - (20.3)
600m - 52.04 - (31.6)
1000m - 1:24.79 - (32.7)
1400m - 1:58.24 - (33.4)
1800m - 2:32.05 - (33.8)
2200m - 3:06.26 - (34.2)
2600m - 3:41.45 - (35.1)
3000m - 4:17.59 - (36.1)
6.60 7
9 275 Katarzyna  Bachleda-Curus POL POL 4:17.70200m - 20.76 - (20.7)
600m - 52.76 - (31.9)
1000m - 1:24.88 - (32.1)
1400m - 1:57.91 - (33.0)
1800m - 2:31.65 - (33.7)
2200m - 3:06.18 - (34.5)
2600m - 3:41.51 - (35.3)
3000m - 4:17.71 - (36.1)
6.72 6
10 211 Brianne  Tutt CAN CAN 4:18.01200m - 20.80 - (20.8)
600m - 54.65 - (33.8)
1000m - 1:28.44 - (33.7)
1400m - 2:02.07 - (33.6)
1800m - 2:35.54 - (33.4)
2200m - 3:09.13 - (33.5)
2600m - 3:43.11 - (33.9)
3000m - 4:18.01 - (34.8)
7.02 5
11 279 Luiza  Zlotkowska POL POL 4:18.17200m - 20.69 - (20.6)
600m - 53.25 - (32.5)
1000m - 1:26.15 - (32.9)
1400m - 1:59.00 - (32.8)
1800m - 2:32.63 - (33.6)
2200m - 3:07.18 - (34.5)
2600m - 3:42.59 - (35.4)
3000m - 4:18.17 - (35.5)
7.18 4
12 215 Jiachen  Hao CHN CHN 4:20.21200m - 20.30 - (20.3)
600m - 52.51 - (32.2)
1000m - 1:25.74 - (33.2)
1400m - 1:59.73 - (33.9)
1800m - 2:34.64 - (34.9)
2200m - 3:09.40 - (34.7)
2600m - 3:44.59 - (35.1)
3000m - 4:20.21 - (35.6)
9.22 3
13 277 Magdalena  Czyszczon POL POL 4:20.96200m - 21.35 - (21.3)
600m - 53.18 - (31.8)
1000m - 1:26.34 - (33.1)
1400m - 2:00.19 - (33.8)
1800m - 2:34.42 - (34.2)
2200m - 3:09.42 - (35.0)
2600m - 3:45.13 - (35.7)
3000m - 4:20.96 - (35.8)
9.97 2
14 219 Jing  Liu CHN CHN 4:21.47200m - 20.75 - (20.7)
600m - 53.24 - (32.4)
1000m - 1:26.01 - (32.7)
1400m - 1:59.78 - (33.7)
1800m - 2:33.95 - (34.1)
2200m - 3:09.36 - (35.4)
2600m - 3:45.17 - (35.8)
3000m - 4:21.47 - (36.2)
10.48 1
15 278 Katarzyna  Wozniak POL POL 4:22.56200m - 20.62 - (20.6)
600m - 52.86 - (32.2)
1000m - 1:25.67 - (32.8)
1400m - 1:59.19 - (33.5)
1800m - 2:33.43 - (34.2)
2200m - 3:08.67 - (35.2)
2600m - 3:44.88 - (36.2)
3000m - 4:22.55 - (37.6)
11.57 0
16 230 Nikola  Zdráhalová CZE CZE 4:24.08200m - 19.87 - (19.8)
600m - 51.66 - (31.7)
1000m - 1:24.90 - (33.2)
1400m - 1:59.61 - (34.7)
1800m - 2:35.02 - (35.4)
2200m - 3:11.00 - (35.9)
2600m - 3:47.42 - (36.4)
3000m - 4:24.08 - (36.6)
13.09 0
17 214 Mei  Han CHN CHN 4:25.04200m - 20.76 - (20.7)
600m - 53.19 - (32.4)
1000m - 1:26.78 - (33.5)
1400m - 2:01.13 - (34.3)
1800m - 2:35.99 - (34.8)
2200m - 3:11.70 - (35.7)
2600m - 3:48.15 - (36.4)
3000m - 4:25.04 - (36.8)
14.05 0
18 216 Dan  Li CHN CHN 4:27.20200m - 21.17 - (21.1)
600m - 53.36 - (32.1)
1000m - 1:26.63 - (33.2)
1400m - 2:01.08 - (34.4)
1800m - 2:36.55 - (35.4)
2200m - 3:13.03 - (36.4)
2600m - 3:49.97 - (36.9)
3000m - 4:27.20 - (37.2)
16.21 0
19 231 Elena  Møller-Rigas DEN DEN 4:28.00200m - 20.70 - (20.6)
600m - 53.40 - (32.7)
1000m - 1:27.98 - (34.5)
1400m - 2:02.84 - (34.8)
1800m - 2:38.73 - (35.8)
2200m - 3:14.69 - (35.9)
2600m - 3:51.34 - (36.6)
3000m - 4:28.00 - (36.6)
17.01 0
20 257 Ji-Woo  Park KOR KOR 4:28.79200m - 20.75 - (20.7)
600m - 54.06 - (33.3)
1000m - 1:28.79 - (34.7)
1400m - 2:04.51 - (35.7)
1800m - 2:40.34 - (35.8)
2200m - 3:16.32 - (35.9)
2600m - 3:52.32 - (36.0)
3000m - 4:28.79 - (36.4)
17.80 0
21 213 Dan  Guo CHN CHN 4:37.40200m - 21.50 - (21.5)
600m - 55.73 - (34.2)
1000m - 1:31.45 - (35.7)
1400m - 2:08.14 - (36.6)
1800m - 2:45.22 - (37.0)
2200m - 3:22.32 - (37.1)
2600m - 3:59.84 - (37.5)
3000m - 4:37.40 - (37.5)
26.41 0